GEFSGL_prec_meanprecacc_210.txt.gz
Total_Precipitation_Accumulation
1.43 1.38 1.38 1.37 1.32 1.23 1.16 1.09 1.04 1.00 0.96 0.93 0.92 0.89 0.87 0.87 0.86 0.87 0.84 0.84 0.89 0.90 0.90 0.88 0.86 0.87 0.92 0.92 0.96 1.07 1.21 1.38 1.52 1.41 1.21 1.10 1.06 1.10 1.16 1.08 1.05 0.99 0.92
1.20 1.24 1.28 1.23 1.19 1.14 1.09 1.04 1.00 0.90 0.85 0.82 0.83 0.79 0.72 0.70 0.74 0.79 0.81 0.80 0.88 0.87 0.85 0.86 0.84 0.84 0.89 0.88 0.91 0.96 1.09 1.26 1.41 1.48 1.31 1.18 1.09 1.04 1.05 1.01 0.87 0.82 0.83
0.98 0.97 1.04 1.06 1.04 1.01 0.94 0.90 0.86 0.81 0.80 0.77 0.71 0.69 0.68 0.65 0.67 0.67 0.67 0.70 0.76 0.81 0.82 0.88 0.90 0.89 0.87 0.85 0.89 0.95 1.07 1.20 1.36 1.41 1.35 1.24 1.19 1.10 1.13 1.06 0.94 1.00 0.85
0.86 0.89 0.93 0.93 0.95 0.98 0.91 0.84 0.81 0.75 0.70 0.68 0.60 0.59 0.65 0.65 0.58 0.54 0.55 0.59 0.64 0.66 0.69 0.82 0.88 0.88 0.88 0.92 0.95 0.99 1.07 1.22 1.32 1.36 1.30 1.22 1.18 1.18 1.22 1.24 1.18 1.12 0.98
0.82 0.87 0.95 0.90 0.87 0.93 0.96 0.87 0.78 0.73 0.69 0.68 0.61 0.55 0.59 0.59 0.54 0.52 0.49 0.49 0.55 0.58 0.60 0.68 0.75 0.77 0.77 0.83 0.85 0.93 1.06 1.21 1.28 1.34 1.30 1.24 1.17 1.25 1.29 1.23 1.18 1.19 1.06
0.77 0.89 0.96 0.95 0.93 0.95 0.98 0.94 0.87 0.80 0.77 0.72 0.66 0.60 0.58 0.56 0.55 0.48 0.46 0.47 0.53 0.61 0.67 0.70 0.65 0.66 0.64 0.62 0.68 0.78 0.93 1.12 1.27 1.34 1.31 1.28 1.22 1.23 1.32 1.31 1.29 1.32 1.30
0.82 0.86 0.92 0.95 0.99 0.99 0.97 0.95 0.92 0.91 0.88 0.77 0.66 0.62 0.59 0.52 0.45 0.38 0.37 0.44 0.56 0.66 0.73 0.71 0.61 0.59 0.68 0.68 0.68 0.71 0.82 0.94 1.15 1.35 1.41 1.30 1.26 1.27 1.39 1.46 1.39 1.38 1.36
0.88 0.85 0.82 0.82 0.84 0.82 0.87 0.93 0.92 0.88 0.81 0.75 0.66 0.61 0.57 0.43 0.36 0.34 0.35 0.40 0.48 0.51 0.55 0.63 0.72 0.73 0.67 0.69 0.68 0.78 0.87 0.97 1.05 1.17 1.33 1.26 1.20 1.26 1.36 1.41 1.35 1.30 1.22
0.82 0.77 0.70 0.65 0.68 0.68 0.76 0.86 0.92 0.86 0.76 0.68 0.63 0.60 0.56 0.43 0.36 0.33 0.35 0.42 0.46 0.43 0.40 0.45 0.53 0.56 0.55 0.63 0.73 0.88 0.94 1.04 1.07 1.24 1.26 1.19 1.18 1.19 1.14 1.18 1.37 1.46 1.37
0.70 0.64 0.59 0.57 0.60 0.63 0.68 0.78 0.83 0.83 0.71 0.58 0.52 0.52 0.49 0.45 0.36 0.30 0.31 0.36 0.43 0.40 0.43 0.49 0.49 0.43 0.45 0.57 0.74 0.94 1.08 1.12 1.21 1.41 1.39 1.35 1.25 1.19 1.09 1.12 1.39 1.57 1.52
0.54 0.53 0.55 0.58 0.61 0.60 0.68 0.76 0.73 0.67 0.64 0.56 0.51 0.48 0.43 0.36 0.29 0.24 0.24 0.28 0.34 0.39 0.44 0.50 0.52 0.46 0.43 0.48 0.65 0.85 1.01 1.05 1.26 1.53 1.44 1.27 1.20 1.14 1.12 1.13 1.26 1.34 1.31
0.50 0.54 0.58 0.58 0.56 0.55 0.65 0.72 0.64 0.61 0.59 0.57 0.55 0.48 0.40 0.32 0.25 0.20 0.16 0.16 0.20 0.37 0.51 0.47 0.46 0.45 0.43 0.50 0.65 0.82 0.95 1.13 1.32 1.42 1.24 1.09 0.99 0.95 0.99 0.95 0.92 0.93 0.98
0.49 0.58 0.60 0.57 0.64 0.64 0.60 0.59 0.58 0.59 0.50 0.46 0.46 0.43 0.39 0.34 0.29 0.21 0.17 0.16 0.19 0.31 0.44 0.48 0.46 0.45 0.56 0.76 0.89 0.99 1.13 1.33 1.39 1.25 1.10 0.98 0.85 0.82 0.79 0.80 0.79 0.82 0.82
0.55 0.57 0.56 0.60 0.70 0.69 0.58 0.47 0.44 0.43 0.39 0.37 0.39 0.38 0.38 0.37 0.29 0.24 0.25 0.24 0.27 0.33 0.42 0.55 0.60 0.64 0.82 1.03 1.17 1.26 1.35 1.39 1.25 1.12 1.03 0.89 0.75 0.75 0.75 0.73 0.80 0.81 0.85
0.50 0.53 0.53 0.56 0.61 0.63 0.52 0.38 0.33 0.28 0.23 0.25 0.28 0.29 0.35 0.34 0.23 0.21 0.24 0.27 0.30 0.34 0.40 0.58 0.73 0.78 0.92 1.07 1.21 1.29 1.33 1.32 1.24 1.10 0.99 0.89 0.80 0.76 0.75 0.70 0.74 0.74 0.78
0.49 0.46 0.41 0.44 0.45 0.44 0.43 0.39 0.26 0.15 0.12 0.11 0.12 0.15 0.18 0.19 0.16 0.15 0.19 0.24 0.29 0.36 0.46 0.71 0.82 0.82 0.88 0.97 1.10 1.19 1.19 1.15 1.09 1.07 1.03 0.99 0.90 0.79 0.77 0.73 0.72 0.74 0.80
0.43 0.43 0.35 0.32 0.34 0.33 0.34 0.41 0.37 0.23 0.11 0.08 0.07 0.09 0.11 0.12 0.14 0.15 0.18 0.23 0.28 0.38 0.53 0.73 0.84 0.88 0.92 0.95 0.97 1.02 1.08 1.08 1.01 0.99 0.97 0.92 0.83 0.76 0.74 0.75 0.73 0.75 0.74
0.30 0.27 0.27 0.32 0.30 0.28 0.27 0.28 0.31 0.36 0.32 0.23 0.13 0.09 0.11 0.14 0.17 0.17 0.20 0.24 0.31 0.36 0.53 0.69 0.81 0.87 0.91 0.94 0.93 0.90 0.95 0.98 0.93 0.86 0.84 0.82 0.77 0.75 0.74 0.74 0.72 0.66 0.63
0.27 0.24 0.24 0.26 0.25 0.22 0.20 0.20 0.23 0.27 0.29 0.29 0.25 0.18 0.16 0.19 0.21 0.21 0.25 0.31 0.39 0.41 0.48 0.60 0.72 0.79 0.80 0.81 0.84 0.84 0.87 0.91 0.86 0.81 0.82 0.81 0.79 0.75 0.69 0.60 0.54 0.44 0.46
0.16 0.15 0.18 0.21 0.19 0.17 0.17 0.19 0.20 0.25 0.26 0.26 0.27 0.25 0.22 0.31 0.41 0.38 0.34 0.37 0.40 0.40 0.45 0.57 0.66 0.69 0.68 0.64 0.64 0.67 0.69 0.72 0.74 0.76 0.76 0.73 0.69 0.64 0.56 0.48 0.45 0.44 0.46
0.12 0.13 0.15 0.15 0.13 0.13 0.13 0.13 0.14 0.18 0.21 0.24 0.19 0.18 0.28 0.37 0.46 0.45 0.44 0.47 0.49 0.46 0.46 0.50 0.55 0.58 0.59 0.56 0.53 0.51 0.53 0.58 0.61 0.64 0.67 0.66 0.60 0.53 0.46 0.40 0.37 0.35 0.35
0.11 0.13 0.13 0.12 0.12 0.12 0.11 0.11 0.11 0.12 0.14 0.19 0.18 0.17 0.27 0.33 0.39 0.42 0.45 0.50 0.54 0.51 0.47 0.48 0.51 0.53 0.53 0.50 0.46 0.45 0.46 0.49 0.51 0.54 0.56 0.54 0.49 0.44 0.36 0.32 0.29 0.28 0.29
0.11 0.12 0.13 0.12 0.10 0.10 0.10 0.11 0.11 0.11 0.12 0.15 0.16 0.18 0.24 0.32 0.37 0.44 0.52 0.54 0.55 0.56 0.51 0.46 0.53 0.56 0.50 0.44 0.40 0.38 0.38 0.39 0.38 0.43 0.52 0.53 0.45 0.38 0.33 0.28 0.25 0.23 0.23
0.10 0.10 0.11 0.13 0.12 0.10 0.10 0.10 0.09 0.09 0.10 0.10 0.13 0.16 0.20 0.26 0.31 0.38 0.47 0.52 0.56 0.57 0.55 0.56 0.61 0.57 0.45 0.40 0.36 0.33 0.35 0.37 0.35 0.37 0.40 0.43 0.39 0.31 0.25 0.23 0.21 0.20 0.21
0.10 0.10 0.10 0.10 0.09 0.09 0.09 0.09 0.08 0.09 0.09 0.09 0.10 0.13 0.17 0.19 0.22 0.27 0.34 0.40 0.43 0.46 0.48 0.52 0.52 0.45 0.39 0.34 0.32 0.31 0.35 0.33 0.30 0.32 0.37 0.41 0.35 0.28 0.24 0.21 0.20 0.20 0.21
0.07 0.07 0.07 0.06 0.06 0.06 0.07 0.07 0.07 0.08 0.09 0.09 0.09 0.12 0.15 0.17 0.20 0.24 0.27 0.29 0.32 0.35 0.38 0.43 0.42 0.35 0.28 0.25 0.25 0.24 0.21 0.17 0.16 0.20 0.30 0.35 0.30 0.25 0.26 0.23 0.18 0.20 0.23

GEFSGL_prec_meanprecacc_216.txt.gz
Total_Precipitation_Accumulation
1.49 1.45 1.47 1.44 1.37 1.26 1.18 1.12 1.07 1.02 0.98 0.94 0.94 0.92 0.90 0.89 0.88 0.90 0.87 0.88 0.94 0.95 0.95 0.93 0.91 0.91 0.97 0.96 1.01 1.12 1.26 1.42 1.56 1.44 1.24 1.12 1.08 1.12 1.18 1.09 1.06 1.00 0.93
1.24 1.29 1.34 1.28 1.24 1.18 1.12 1.07 1.03 0.93 0.87 0.85 0.86 0.82 0.75 0.72 0.77 0.83 0.86 0.85 0.94 0.94 0.92 0.92 0.88 0.88 0.93 0.93 0.95 1.01 1.14 1.31 1.46 1.52 1.35 1.21 1.11 1.06 1.08 1.04 0.88 0.83 0.85
1.00 1.00 1.07 1.08 1.07 1.04 0.97 0.92 0.88 0.85 0.83 0.81 0.75 0.73 0.72 0.68 0.69 0.70 0.72 0.74 0.80 0.86 0.87 0.92 0.93 0.93 0.91 0.90 0.93 1.00 1.12 1.25 1.40 1.45 1.37 1.27 1.21 1.13 1.16 1.08 0.96 1.03 0.90
0.87 0.90 0.95 0.95 0.97 1.00 0.93 0.86 0.82 0.77 0.74 0.72 0.65 0.63 0.69 0.68 0.62 0.59 0.60 0.65 0.70 0.71 0.72 0.85 0.91 0.92 0.92 0.98 1.00 1.04 1.11 1.27 1.36 1.40 1.33 1.25 1.21 1.21 1.26 1.27 1.21 1.16 1.06
0.84 0.88 0.96 0.91 0.88 0.95 0.98 0.88 0.79 0.75 0.71 0.71 0.65 0.60 0.63 0.63 0.57 0.57 0.57 0.57 0.61 0.61 0.63 0.71 0.78 0.80 0.81 0.87 0.89 0.98 1.11 1.26 1.33 1.38 1.33 1.27 1.20 1.28 1.32 1.27 1.22 1.23 1.11
0.79 0.89 0.97 0.97 0.95 0.96 1.00 0.96 0.89 0.82 0.79 0.75 0.69 0.64 0.62 0.59 0.60 0.54 0.52 0.53 0.57 0.63 0.70 0.72 0.68 0.68 0.66 0.64 0.71 0.81 0.97 1.17 1.33 1.39 1.35 1.32 1.25 1.28 1.37 1.36 1.33 1.35 1.34
0.84 0.86 0.93 0.96 1.01 1.01 0.99 0.97 0.95 0.92 0.90 0.80 0.70 0.66 0.63 0.56 0.51 0.42 0.41 0.46 0.58 0.68 0.76 0.74 0.64 0.61 0.70 0.71 0.71 0.74 0.85 0.99 1.20 1.41 1.46 1.34 1.30 1.31 1.44 1.50 1.43 1.42 1.40
0.89 0.86 0.82 0.82 0.85 0.84 0.89 0.96 0.94 0.90 0.84 0.78 0.70 0.64 0.60 0.46 0.39 0.37 0.40 0.42 0.50 0.54 0.58 0.66 0.76 0.78 0.71 0.72 0.71 0.81 0.90 1.00 1.09 1.21 1.38 1.31 1.24 1.30 1.39 1.43 1.38 1.33 1.25
0.83 0.78 0.70 0.66 0.69 0.70 0.77 0.87 0.94 0.89 0.79 0.72 0.66 0.63 0.59 0.47 0.40 0.38 0.39 0.44 0.48 0.45 0.42 0.48 0.55 0.59 0.59 0.67 0.77 0.92 0.98 1.09 1.11 1.27 1.29 1.23 1.22 1.23 1.17 1.21 1.40 1.50 1.40
0.71 0.64 0.59 0.58 0.61 0.64 0.69 0.79 0.85 0.85 0.74 0.62 0.55 0.55 0.52 0.50 0.42 0.35 0.35 0.38 0.45 0.43 0.45 0.52 0.52 0.46 0.49 0.62 0.80 0.99 1.13 1.18 1.27 1.45 1.43 1.40 1.29 1.22 1.12 1.15 1.42 1.61 1.56
0.55 0.54 0.56 0.59 0.62 0.61 0.69 0.77 0.74 0.68 0.67 0.60 0.55 0.52 0.47 0.40 0.33 0.28 0.29 0.32 0.37 0.42 0.48 0.56 0.59 0.51 0.47 0.53 0.71 0.90 1.07 1.10 1.32 1.57 1.47 1.31 1.25 1.20 1.16 1.17 1.29 1.38 1.35
0.52 0.56 0.60 0.60 0.58 0.56 0.67 0.74 0.66 0.64 0.63 0.61 0.59 0.52 0.44 0.35 0.28 0.22 0.19 0.20 0.24 0.41 0.56 0.55 0.54 0.52 0.49 0.55 0.70 0.87 1.00 1.16 1.36 1.46 1.27 1.11 1.02 0.99 1.03 0.99 0.97 0.98 1.02
0.52 0.60 0.62 0.59 0.66 0.65 0.61 0.60 0.59 0.62 0.54 0.49 0.49 0.46 0.42 0.37 0.31 0.23 0.18 0.17 0.21 0.33 0.49 0.53 0.51 0.49 0.60 0.80 0.92 1.01 1.15 1.36 1.42 1.28 1.13 1.01 0.88 0.85 0.82 0.83 0.83 0.86 0.86
0.56 0.58 0.56 0.60 0.71 0.70 0.59 0.48 0.46 0.47 0.44 0.40 0.42 0.40 0.40 0.40 0.31 0.26 0.26 0.26 0.28 0.33 0.44 0.57 0.62 0.66 0.84 1.04 1.19 1.27 1.36 1.41 1.28 1.15 1.05 0.92 0.78 0.78 0.78 0.76 0.83 0.85 0.89
0.51 0.54 0.54 0.57 0.62 0.64 0.53 0.40 0.38 0.33 0.27 0.27 0.29 0.31 0.36 0.35 0.25 0.23 0.26 0.28 0.31 0.35 0.42 0.61 0.75 0.80 0.93 1.09 1.23 1.31 1.35 1.34 1.25 1.13 1.02 0.92 0.84 0.80 0.78 0.72 0.77 0.78 0.82
0.49 0.46 0.41 0.44 0.46 0.45 0.45 0.42 0.28 0.17 0.13 0.12 0.13 0.17 0.19 0.20 0.17 0.17 0.21 0.26 0.30 0.37 0.49 0.74 0.84 0.83 0.89 0.99 1.11 1.22 1.21 1.17 1.11 1.09 1.06 1.02 0.94 0.82 0.79 0.76 0.74 0.77 0.83
0.44 0.43 0.35 0.33 0.35 0.35 0.37 0.43 0.39 0.24 0.12 0.09 0.08 0.11 0.13 0.13 0.15 0.17 0.19 0.24 0.29 0.39 0.56 0.76 0.85 0.90 0.93 0.96 0.99 1.04 1.10 1.10 1.03 1.00 0.99 0.94 0.86 0.79 0.77 0.77 0.75 0.77 0.77
0.31 0.28 0.28 0.33 0.32 0.30 0.29 0.29 0.32 0.37 0.33 0.25 0.16 0.12 0.13 0.15 0.18 0.18 0.21 0.26 0.33 0.38 0.56 0.73 0.84 0.89 0.93 0.96 0.95 0.93 0.97 1.00 0.95 0.87 0.86 0.84 0.79 0.77 0.76 0.75 0.73 0.68 0.65
0.28 0.25 0.25 0.27 0.27 0.24 0.22 0.22 0.24 0.29 0.31 0.32 0.28 0.21 0.18 0.20 0.22 0.22 0.26 0.33 0.41 0.43 0.50 0.62 0.73 0.81 0.81 0.82 0.85 0.86 0.89 0.93 0.87 0.83 0.84 0.83 0.81 0.76 0.71 0.62 0.55 0.46 0.48
0.17 0.16 0.19 0.23 0.21 0.19 0.18 0.20 0.21 0.26 0.29 0.29 0.31 0.28 0.24 0.33 0.42 0.39 0.35 0.39 0.42 0.42 0.46 0.57 0.67 0.69 0.69 0.65 0.66 0.69 0.72 0.73 0.75 0.77 0.78 0.75 0.70 0.65 0.57 0.50 0.47 0.46 0.48
0.13 0.15 0.17 0.17 0.16 0.15 0.15 0.14 0.15 0.20 0.24 0.27 0.24 0.21 0.30 0.38 0.47 0.46 0.44 0.48 0.50 0.48 0.48 0.52 0.56 0.59 0.59 0.57 0.54 0.53 0.55 0.59 0.62 0.65 0.68 0.67 0.61 0.54 0.48 0.42 0.39 0.37 0.37
0.13 0.15 0.16 0.14 0.14 0.13 0.13 0.13 0.13 0.15 0.18 0.23 0.22 0.19 0.28 0.34 0.40 0.43 0.46 0.51 0.54 0.53 0.50 0.51 0.53 0.54 0.54 0.52 0.48 0.47 0.47 0.51 0.52 0.55 0.57 0.54 0.50 0.45 0.38 0.33 0.31 0.30 0.31
0.13 0.14 0.14 0.13 0.11 0.11 0.11 0.12 0.12 0.14 0.15 0.18 0.19 0.21 0.26 0.33 0.38 0.45 0.52 0.56 0.56 0.57 0.53 0.49 0.55 0.58 0.51 0.45 0.41 0.39 0.39 0.39 0.39 0.43 0.52 0.53 0.46 0.39 0.34 0.29 0.26 0.25 0.25
0.12 0.12 0.13 0.14 0.13 0.11 0.11 0.10 0.09 0.10 0.12 0.13 0.16 0.18 0.22 0.27 0.32 0.39 0.47 0.53 0.58 0.59 0.57 0.58 0.63 0.58 0.47 0.41 0.37 0.34 0.35 0.37 0.36 0.37 0.40 0.44 0.40 0.32 0.27 0.25 0.23 0.23 0.24
0.11 0.11 0.11 0.11 0.11 0.11 0.10 0.09 0.08 0.09 0.10 0.11 0.12 0.14 0.17 0.20 0.23 0.28 0.36 0.41 0.44 0.48 0.49 0.53 0.54 0.46 0.39 0.35 0.32 0.32 0.36 0.34 0.31 0.33 0.38 0.42 0.36 0.30 0.26 0.23 0.23 0.23 0.23
0.08 0.08 0.09 0.08 0.07 0.07 0.08 0.08 0.08 0.08 0.10 0.10 0.10 0.13 0.16 0.18 0.21 0.25 0.28 0.30 0.32 0.36 0.39 0.44 0.43 0.36 0.29 0.26 0.26 0.25 0.22 0.18 0.17 0.21 0.31 0.35 0.31 0.27 0.27 0.25 0.20 0.23 0.26

GEFSGL_prec_meanprecacc_222.txt.gz
Total_Precipitation_Accumulation
1.62 1.56 1.58 1.54 1.44 1.32 1.23 1.16 1.11 1.07 1.02 0.99 0.98 0.97 0.95 0.95 0.94 0.96 0.94 0.95 1.01 1.03 1.02 1.01 0.99 1.00 1.03 1.02 1.09 1.21 1.36 1.53 1.67 1.52 1.32 1.20 1.15 1.17 1.22 1.13 1.09 1.02 0.95
1.30 1.35 1.42 1.35 1.29 1.22 1.16 1.11 1.07 0.97 0.91 0.90 0.91 0.88 0.79 0.77 0.83 0.90 0.92 0.90 0.98 0.99 0.97 1.00 0.98 0.97 1.00 1.00 1.04 1.10 1.23 1.41 1.56 1.62 1.44 1.29 1.19 1.13 1.13 1.09 0.92 0.85 0.88
1.04 1.05 1.13 1.14 1.12 1.10 1.01 0.95 0.92 0.89 0.88 0.86 0.81 0.79 0.77 0.73 0.75 0.75 0.77 0.78 0.86 0.93 0.95 1.00 1.00 1.02 1.00 0.98 1.02 1.07 1.19 1.32 1.50 1.56 1.49 1.38 1.29 1.20 1.23 1.14 1.02 1.08 0.93
0.90 0.94 0.99 0.98 1.00 1.05 0.98 0.90 0.87 0.82 0.80 0.78 0.72 0.71 0.77 0.76 0.68 0.63 0.65 0.70 0.77 0.80 0.81 0.92 0.98 1.00 0.99 1.04 1.06 1.10 1.18 1.36 1.48 1.52 1.45 1.35 1.31 1.29 1.33 1.33 1.27 1.23 1.11
0.86 0.91 1.00 0.94 0.91 0.99 1.04 0.93 0.83 0.79 0.76 0.76 0.70 0.66 0.71 0.69 0.62 0.62 0.63 0.63 0.68 0.68 0.70 0.77 0.83 0.84 0.84 0.90 0.93 1.03 1.16 1.32 1.40 1.46 1.42 1.37 1.30 1.37 1.39 1.32 1.28 1.30 1.18
0.81 0.92 0.99 0.99 0.97 1.01 1.05 1.01 0.93 0.87 0.85 0.80 0.74 0.70 0.69 0.64 0.63 0.57 0.56 0.58 0.64 0.70 0.76 0.76 0.71 0.71 0.69 0.66 0.73 0.83 1.00 1.20 1.37 1.44 1.41 1.39 1.33 1.36 1.44 1.42 1.39 1.42 1.40
0.87 0.88 0.95 0.99 1.05 1.07 1.04 1.02 0.99 0.97 0.95 0.85 0.75 0.73 0.70 0.62 0.54 0.45 0.44 0.50 0.64 0.74 0.81 0.79 0.67 0.64 0.73 0.73 0.73 0.76 0.88 1.02 1.23 1.45 1.50 1.40 1.36 1.39 1.51 1.56 1.49 1.48 1.46
0.91 0.87 0.85 0.86 0.89 0.89 0.95 1.01 0.99 0.95 0.89 0.84 0.77 0.71 0.67 0.50 0.44 0.41 0.43 0.46 0.55 0.60 0.64 0.72 0.80 0.82 0.74 0.74 0.73 0.84 0.94 1.05 1.13 1.25 1.43 1.35 1.29 1.36 1.45 1.49 1.44 1.40 1.32
0.85 0.80 0.73 0.69 0.73 0.74 0.81 0.92 0.99 0.94 0.85 0.78 0.71 0.68 0.63 0.51 0.45 0.43 0.43 0.47 0.52 0.50 0.47 0.53 0.58 0.62 0.62 0.69 0.80 0.96 1.01 1.12 1.14 1.29 1.32 1.27 1.26 1.27 1.22 1.26 1.46 1.56 1.46
0.74 0.67 0.62 0.61 0.65 0.67 0.72 0.83 0.89 0.90 0.79 0.66 0.59 0.59 0.56 0.53 0.47 0.40 0.38 0.42 0.49 0.46 0.49 0.57 0.56 0.48 0.51 0.65 0.84 1.03 1.18 1.21 1.31 1.48 1.46 1.43 1.33 1.26 1.16 1.20 1.48 1.66 1.61
0.58 0.57 0.59 0.64 0.67 0.65 0.72 0.80 0.78 0.71 0.71 0.64 0.59 0.57 0.50 0.43 0.37 0.32 0.32 0.36 0.41 0.46 0.52 0.61 0.63 0.54 0.49 0.56 0.75 0.94 1.10 1.14 1.37 1.62 1.51 1.36 1.30 1.25 1.23 1.23 1.35 1.44 1.41
0.56 0.60 0.64 0.64 0.60 0.59 0.70 0.77 0.69 0.67 0.67 0.65 0.63 0.57 0.47 0.37 0.31 0.25 0.23 0.24 0.28 0.46 0.61 0.61 0.59 0.56 0.53 0.59 0.74 0.91 1.03 1.21 1.41 1.52 1.32 1.16 1.07 1.05 1.09 1.05 1.03 1.04 1.08
0.55 0.64 0.65 0.61 0.68 0.67 0.64 0.64 0.62 0.65 0.58 0.53 0.53 0.50 0.46 0.40 0.33 0.25 0.20 0.20 0.25 0.38 0.55 0.59 0.57 0.55 0.63 0.83 0.95 1.04 1.18 1.38 1.45 1.31 1.16 1.05 0.93 0.91 0.87 0.88 0.87 0.90 0.90
0.59 0.62 0.60 0.63 0.73 0.72 0.62 0.51 0.49 0.50 0.47 0.43 0.44 0.43 0.43 0.43 0.33 0.29 0.29 0.28 0.30 0.37 0.49 0.64 0.69 0.72 0.89 1.08 1.21 1.29 1.38 1.43 1.30 1.17 1.07 0.95 0.82 0.83 0.83 0.79 0.86 0.89 0.94
0.54 0.57 0.57 0.59 0.64 0.66 0.56 0.43 0.41 0.36 0.29 0.29 0.30 0.32 0.38 0.37 0.27 0.25 0.28 0.31 0.34 0.37 0.46 0.66 0.82 0.87 0.99 1.13 1.26 1.32 1.37 1.35 1.27 1.15 1.06 0.96 0.87 0.85 0.82 0.75 0.80 0.81 0.86
0.52 0.49 0.45 0.47 0.49 0.49 0.50 0.44 0.30 0.17 0.13 0.13 0.13 0.17 0.21 0.22 0.19 0.18 0.22 0.27 0.32 0.40 0.54 0.82 0.92 0.91 0.96 1.04 1.14 1.24 1.24 1.20 1.14 1.12 1.11 1.07 0.97 0.86 0.82 0.78 0.76 0.80 0.86
0.47 0.46 0.38 0.36 0.39 0.40 0.41 0.48 0.42 0.25 0.12 0.09 0.08 0.12 0.13 0.14 0.16 0.18 0.20 0.25 0.31 0.43 0.60 0.81 0.92 0.97 1.00 1.02 1.03 1.07 1.13 1.14 1.07 1.05 1.03 0.98 0.88 0.81 0.78 0.79 0.77 0.79 0.80
0.33 0.30 0.31 0.36 0.35 0.34 0.32 0.32 0.36 0.41 0.37 0.27 0.17 0.14 0.15 0.16 0.19 0.19 0.21 0.27 0.34 0.41 0.59 0.76 0.87 0.94 1.00 1.02 0.99 0.95 1.00 1.03 0.97 0.90 0.88 0.86 0.81 0.79 0.78 0.77 0.76 0.70 0.67
0.30 0.27 0.28 0.30 0.30 0.27 0.24 0.24 0.27 0.33 0.36 0.35 0.31 0.23 0.19 0.21 0.23 0.23 0.27 0.34 0.42 0.45 0.52 0.64 0.76 0.84 0.85 0.85 0.88 0.88 0.91 0.94 0.89 0.84 0.85 0.85 0.82 0.77 0.72 0.63 0.57 0.48 0.50
0.19 0.17 0.21 0.25 0.24 0.21 0.21 0.23 0.23 0.28 0.31 0.32 0.34 0.31 0.26 0.34 0.43 0.40 0.36 0.40 0.44 0.44 0.48 0.59 0.68 0.71 0.70 0.66 0.67 0.70 0.73 0.75 0.76 0.78 0.78 0.75 0.71 0.66 0.58 0.52 0.49 0.49 0.50
0.15 0.16 0.18 0.19 0.17 0.17 0.18 0.17 0.16 0.21 0.27 0.31 0.27 0.24 0.33 0.40 0.48 0.47 0.46 0.50 0.52 0.50 0.50 0.54 0.58 0.61 0.61 0.58 0.55 0.54 0.56 0.60 0.63 0.66 0.69 0.68 0.62 0.56 0.50 0.44 0.42 0.39 0.39
0.14 0.16 0.17 0.16 0.15 0.15 0.15 0.15 0.15 0.19 0.23 0.27 0.26 0.23 0.31 0.36 0.42 0.45 0.47 0.53 0.57 0.56 0.53 0.54 0.55 0.56 0.56 0.54 0.50 0.48 0.48 0.52 0.53 0.55 0.57 0.55 0.51 0.47 0.39 0.35 0.33 0.32 0.33
0.14 0.16 0.17 0.15 0.13 0.12 0.13 0.13 0.14 0.18 0.21 0.23 0.23 0.24 0.28 0.36 0.41 0.49 0.56 0.59 0.60 0.61 0.56 0.52 0.58 0.61 0.54 0.48 0.44 0.41 0.40 0.40 0.40 0.44 0.53 0.53 0.46 0.40 0.36 0.31 0.29 0.29 0.29
0.13 0.13 0.14 0.16 0.15 0.13 0.13 0.12 0.11 0.12 0.15 0.16 0.20 0.20 0.23 0.29 0.36 0.43 0.52 0.58 0.62 0.63 0.61 0.61 0.67 0.61 0.49 0.43 0.39 0.36 0.37 0.39 0.38 0.39 0.42 0.45 0.42 0.34 0.29 0.28 0.26 0.27 0.28
0.12 0.12 0.13 0.13 0.12 0.11 0.12 0.10 0.10 0.11 0.12 0.13 0.14 0.16 0.19 0.22 0.25 0.31 0.38 0.44 0.48 0.50 0.51 0.55 0.55 0.48 0.41 0.36 0.34 0.35 0.39 0.36 0.33 0.35 0.40 0.44 0.38 0.33 0.29 0.26 0.26 0.25 0.26
0.09 0.09 0.09 0.08 0.08 0.08 0.08 0.09 0.08 0.09 0.11 0.12 0.12 0.14 0.18 0.19 0.23 0.27 0.30 0.32 0.34 0.38 0.41 0.45 0.45 0.37 0.30 0.27 0.28 0.27 0.24 0.20 0.19 0.22 0.32 0.37 0.32 0.28 0.29 0.28 0.24 0.25 0.29

GEFSGL_prec_meanprecacc_228.txt.gz
Total_Precipitation_Accumulation
1.66 1.61 1.63 1.59 1.51 1.39 1.30 1.21 1.15 1.10 1.05 1.02 1.01 0.99 0.98 0.98 0.97 1.00 0.98 0.99 1.05 1.07 1.05 1.05 1.04 1.06 1.10 1.08 1.15 1.26 1.41 1.59 1.72 1.56 1.38 1.27 1.23 1.25 1.27 1.17 1.12 1.05 0.97
1.33 1.44 1.53 1.43 1.37 1.30 1.24 1.17 1.11 0.99 0.93 0.92 0.94 0.90 0.82 0.81 0.88 0.95 0.97 0.95 1.02 1.02 1.01 1.04 1.02 1.02 1.04 1.04 1.09 1.15 1.28 1.46 1.62 1.67 1.50 1.35 1.26 1.22 1.21 1.15 0.96 0.89 0.91
1.07 1.09 1.21 1.25 1.21 1.18 1.07 0.99 0.95 0.91 0.90 0.88 0.85 0.83 0.81 0.77 0.80 0.81 0.82 0.83 0.89 0.95 0.97 1.02 1.03 1.05 1.02 1.01 1.05 1.11 1.23 1.36 1.54 1.61 1.52 1.42 1.35 1.26 1.30 1.19 1.06 1.13 0.97
0.92 0.97 1.04 1.06 1.07 1.09 1.01 0.92 0.88 0.84 0.82 0.80 0.75 0.74 0.80 0.79 0.71 0.66 0.68 0.72 0.80 0.82 0.83 0.94 1.00 1.02 1.00 1.05 1.08 1.13 1.21 1.38 1.50 1.55 1.47 1.37 1.33 1.33 1.38 1.37 1.30 1.26 1.14
0.88 0.94 1.03 0.97 0.93 1.00 1.05 0.94 0.84 0.80 0.77 0.78 0.72 0.68 0.73 0.72 0.65 0.65 0.65 0.66 0.71 0.71 0.73 0.80 0.85 0.86 0.85 0.91 0.93 1.03 1.17 1.33 1.42 1.48 1.44 1.38 1.31 1.41 1.43 1.36 1.31 1.32 1.20
0.82 0.94 1.01 1.00 0.98 1.02 1.08 1.02 0.94 0.88 0.85 0.81 0.76 0.71 0.71 0.65 0.65 0.60 0.58 0.61 0.67 0.73 0.79 0.79 0.74 0.73 0.70 0.67 0.73 0.84 1.01 1.22 1.39 1.46 1.42 1.40 1.35 1.38 1.48 1.45 1.42 1.45 1.42
0.88 0.89 0.96 1.01 1.06 1.09 1.07 1.04 1.00 0.98 0.96 0.86 0.77 0.74 0.71 0.64 0.56 0.47 0.46 0.52 0.67 0.77 0.84 0.81 0.70 0.66 0.75 0.75 0.74 0.77 0.89 1.03 1.25 1.47 1.52 1.41 1.38 1.42 1.55 1.60 1.53 1.52 1.49
0.92 0.88 0.85 0.88 0.91 0.91 0.98 1.03 1.00 0.96 0.91 0.85 0.78 0.73 0.68 0.52 0.45 0.43 0.45 0.48 0.58 0.63 0.67 0.73 0.82 0.84 0.76 0.76 0.74 0.85 0.95 1.06 1.14 1.27 1.45 1.37 1.31 1.38 1.49 1.53 1.48 1.43 1.36
0.86 0.81 0.74 0.71 0.74 0.75 0.83 0.94 1.00 0.97 0.87 0.79 0.72 0.69 0.64 0.52 0.47 0.45 0.46 0.51 0.57 0.54 0.51 0.55 0.61 0.64 0.65 0.72 0.82 0.97 1.02 1.13 1.15 1.31 1.33 1.27 1.27 1.30 1.25 1.29 1.50 1.61 1.50
0.75 0.68 0.63 0.62 0.67 0.68 0.74 0.85 0.91 0.92 0.81 0.67 0.60 0.60 0.57 0.55 0.49 0.42 0.41 0.45 0.53 0.51 0.53 0.60 0.59 0.51 0.55 0.68 0.86 1.05 1.19 1.22 1.31 1.49 1.47 1.44 1.35 1.30 1.20 1.22 1.51 1.70 1.65
0.60 0.58 0.60 0.65 0.68 0.67 0.74 0.81 0.79 0.73 0.72 0.65 0.60 0.58 0.52 0.44 0.39 0.34 0.35 0.39 0.46 0.51 0.57 0.66 0.67 0.58 0.52 0.59 0.78 0.97 1.13 1.17 1.39 1.64 1.53 1.38 1.33 1.29 1.26 1.25 1.37 1.46 1.43
0.58 0.61 0.65 0.65 0.61 0.60 0.71 0.78 0.71 0.69 0.68 0.66 0.64 0.58 0.48 0.39 0.33 0.28 0.26 0.28 0.32 0.51 0.66 0.65 0.65 0.62 0.59 0.65 0.79 0.95 1.08 1.25 1.45 1.56 1.35 1.19 1.10 1.08 1.12 1.08 1.05 1.06 1.11
0.56 0.65 0.66 0.62 0.68 0.68 0.65 0.65 0.65 0.67 0.59 0.54 0.55 0.52 0.48 0.42 0.35 0.27 0.23 0.24 0.30 0.43 0.59 0.63 0.60 0.58 0.67 0.88 0.99 1.08 1.23 1.44 1.49 1.35 1.20 1.08 0.96 0.95 0.91 0.90 0.89 0.94 0.94
0.60 0.62 0.60 0.64 0.74 0.72 0.63 0.53 0.51 0.51 0.48 0.44 0.45 0.44 0.46 0.44 0.34 0.30 0.30 0.31 0.34 0.41 0.53 0.66 0.71 0.73 0.90 1.10 1.24 1.32 1.42 1.47 1.33 1.20 1.11 0.98 0.84 0.87 0.86 0.82 0.90 0.94 0.97
0.55 0.58 0.59 0.60 0.64 0.67 0.58 0.45 0.42 0.37 0.30 0.30 0.32 0.33 0.40 0.38 0.27 0.26 0.29 0.32 0.36 0.40 0.47 0.68 0.83 0.87 1.00 1.15 1.28 1.35 1.39 1.39 1.31 1.19 1.10 0.99 0.90 0.88 0.84 0.77 0.82 0.83 0.87
0.53 0.51 0.46 0.48 0.50 0.50 0.51 0.45 0.30 0.18 0.14 0.13 0.14 0.18 0.21 0.23 0.20 0.19 0.22 0.28 0.33 0.41 0.55 0.83 0.92 0.91 0.97 1.06 1.17 1.27 1.26 1.23 1.17 1.16 1.14 1.10 1.00 0.87 0.84 0.79 0.77 0.81 0.88
0.48 0.47 0.39 0.37 0.40 0.41 0.42 0.48 0.43 0.26 0.13 0.10 0.09 0.12 0.14 0.14 0.17 0.18 0.20 0.26 0.31 0.44 0.61 0.82 0.92 0.97 1.01 1.05 1.07 1.10 1.15 1.16 1.10 1.07 1.06 1.01 0.91 0.83 0.79 0.80 0.78 0.80 0.81
0.35 0.32 0.32 0.38 0.37 0.35 0.34 0.33 0.37 0.43 0.37 0.28 0.17 0.14 0.15 0.17 0.19 0.19 0.22 0.27 0.35 0.42 0.60 0.77 0.88 0.95 1.01 1.04 1.03 0.99 1.03 1.05 0.99 0.92 0.91 0.89 0.84 0.80 0.79 0.78 0.76 0.71 0.68
0.31 0.29 0.29 0.31 0.31 0.27 0.25 0.25 0.28 0.34 0.36 0.36 0.31 0.23 0.19 0.21 0.23 0.23 0.28 0.36 0.44 0.47 0.54 0.65 0.76 0.85 0.86 0.87 0.90 0.92 0.95 0.97 0.91 0.87 0.87 0.88 0.85 0.79 0.72 0.64 0.58 0.49 0.51
0.20 0.18 0.22 0.26 0.25 0.22 0.22 0.23 0.25 0.29 0.32 0.32 0.34 0.31 0.27 0.35 0.45 0.41 0.37 0.42 0.46 0.47 0.51 0.61 0.69 0.71 0.71 0.67 0.68 0.72 0.77 0.78 0.79 0.81 0.81 0.78 0.73 0.67 0.59 0.52 0.50 0.50 0.52
0.16 0.17 0.19 0.19 0.18 0.18 0.19 0.18 0.17 0.22 0.27 0.31 0.28 0.26 0.36 0.44 0.52 0.50 0.49 0.53 0.55 0.53 0.52 0.56 0.59 0.62 0.61 0.59 0.57 0.56 0.59 0.63 0.66 0.69 0.72 0.70 0.63 0.57 0.51 0.45 0.43 0.41 0.42
0.15 0.17 0.18 0.16 0.16 0.15 0.15 0.15 0.15 0.19 0.23 0.28 0.28 0.27 0.37 0.42 0.47 0.49 0.52 0.57 0.61 0.59 0.55 0.55 0.57 0.57 0.58 0.55 0.51 0.50 0.51 0.56 0.57 0.59 0.60 0.57 0.53 0.49 0.41 0.36 0.34 0.34 0.36
0.15 0.17 0.17 0.15 0.13 0.13 0.13 0.14 0.15 0.18 0.22 0.25 0.28 0.29 0.34 0.44 0.48 0.54 0.61 0.63 0.63 0.64 0.58 0.54 0.59 0.63 0.56 0.49 0.44 0.43 0.42 0.45 0.44 0.47 0.56 0.56 0.49 0.43 0.38 0.32 0.30 0.31 0.32
0.14 0.14 0.15 0.16 0.15 0.14 0.13 0.13 0.11 0.12 0.16 0.19 0.23 0.23 0.27 0.35 0.42 0.47 0.54 0.60 0.65 0.66 0.64 0.64 0.68 0.62 0.50 0.44 0.39 0.38 0.39 0.42 0.40 0.42 0.45 0.49 0.45 0.38 0.33 0.31 0.29 0.31 0.33
0.12 0.12 0.13 0.13 0.12 0.12 0.12 0.11 0.10 0.11 0.14 0.15 0.16 0.18 0.21 0.24 0.28 0.33 0.39 0.45 0.49 0.53 0.54 0.57 0.57 0.49 0.42 0.37 0.35 0.36 0.41 0.38 0.35 0.38 0.43 0.47 0.41 0.36 0.32 0.29 0.29 0.29 0.30
0.10 0.10 0.10 0.09 0.08 0.08 0.09 0.09 0.09 0.10 0.12 0.13 0.13 0.15 0.18 0.21 0.25 0.29 0.32 0.34 0.36 0.40 0.44 0.48 0.47 0.38 0.31 0.28 0.29 0.28 0.25 0.21 0.20 0.24 0.34 0.39 0.34 0.29 0.31 0.30 0.27 0.29 0.33

GEFSGL_prec_meanprecacc_234.txt.gz
Total_Precipitation_Accumulation
1.70 1.65 1.67 1.62 1.55 1.43 1.33 1.24 1.18 1.12 1.07 1.05 1.03 1.01 1.00 1.00 0.98 1.02 1.00 1.02 1.07 1.09 1.09 1.08 1.07 1.09 1.13 1.11 1.18 1.30 1.46 1.66 1.77 1.59 1.43 1.33 1.28 1.31 1.34 1.22 1.15 1.07 0.99
1.36 1.48 1.59 1.49 1.41 1.33 1.26 1.18 1.12 1.00 0.95 0.95 0.97 0.92 0.84 0.82 0.89 0.96 0.98 0.96 1.04 1.04 1.04 1.08 1.06 1.08 1.09 1.07 1.12 1.18 1.34 1.55 1.70 1.74 1.57 1.43 1.36 1.31 1.29 1.20 0.99 0.91 0.93
1.11 1.15 1.27 1.31 1.27 1.23 1.10 1.01 0.97 0.93 0.92 0.91 0.87 0.85 0.83 0.79 0.81 0.82 0.83 0.84 0.90 0.97 1.00 1.06 1.08 1.10 1.08 1.07 1.11 1.16 1.29 1.42 1.59 1.66 1.59 1.49 1.42 1.34 1.38 1.26 1.12 1.18 1.01
0.98 1.06 1.10 1.11 1.12 1.13 1.04 0.94 0.90 0.87 0.84 0.82 0.77 0.76 0.81 0.80 0.72 0.67 0.69 0.73 0.81 0.84 0.85 0.96 1.02 1.04 1.03 1.09 1.12 1.16 1.25 1.41 1.52 1.57 1.50 1.41 1.38 1.37 1.43 1.43 1.36 1.31 1.20
0.90 0.98 1.08 1.01 0.96 1.03 1.07 0.96 0.86 0.83 0.79 0.79 0.74 0.69 0.74 0.72 0.65 0.66 0.66 0.67 0.73 0.73 0.75 0.82 0.87 0.88 0.87 0.93 0.95 1.05 1.18 1.34 1.43 1.50 1.47 1.41 1.35 1.44 1.46 1.40 1.36 1.35 1.23
0.83 0.95 1.02 1.01 0.99 1.03 1.08 1.03 0.96 0.89 0.86 0.82 0.76 0.71 0.71 0.66 0.65 0.61 0.59 0.62 0.69 0.75 0.81 0.82 0.76 0.76 0.72 0.69 0.75 0.85 1.02 1.23 1.41 1.49 1.44 1.42 1.36 1.40 1.50 1.48 1.46 1.47 1.43
0.88 0.90 0.96 1.02 1.08 1.10 1.08 1.05 1.01 0.99 0.97 0.87 0.77 0.74 0.71 0.64 0.57 0.48 0.47 0.53 0.68 0.80 0.86 0.84 0.72 0.68 0.77 0.76 0.76 0.79 0.92 1.05 1.27 1.49 1.54 1.42 1.39 1.44 1.57 1.63 1.56 1.54 1.50
0.92 0.89 0.86 0.89 0.92 0.92 0.98 1.03 1.00 0.97 0.91 0.85 0.78 0.73 0.68 0.52 0.46 0.44 0.46 0.50 0.59 0.65 0.68 0.75 0.83 0.85 0.78 0.79 0.78 0.88 0.97 1.07 1.15 1.28 1.46 1.39 1.34 1.42 1.53 1.56 1.51 1.45 1.38
0.86 0.82 0.75 0.71 0.75 0.76 0.83 0.94 1.01 0.97 0.87 0.79 0.72 0.69 0.65 0.52 0.48 0.46 0.48 0.53 0.58 0.55 0.51 0.56 0.63 0.67 0.68 0.75 0.84 1.00 1.04 1.15 1.17 1.33 1.36 1.30 1.30 1.33 1.28 1.31 1.53 1.64 1.54
0.76 0.69 0.64 0.63 0.67 0.68 0.74 0.85 0.91 0.92 0.81 0.67 0.60 0.60 0.57 0.56 0.50 0.44 0.43 0.47 0.55 0.52 0.55 0.61 0.61 0.54 0.58 0.71 0.88 1.08 1.22 1.26 1.34 1.52 1.50 1.48 1.39 1.35 1.24 1.25 1.53 1.72 1.67
0.60 0.59 0.61 0.65 0.69 0.67 0.74 0.82 0.80 0.74 0.73 0.66 0.61 0.60 0.54 0.46 0.41 0.35 0.36 0.41 0.47 0.52 0.59 0.68 0.69 0.60 0.55 0.62 0.81 1.01 1.17 1.21 1.43 1.68 1.57 1.41 1.37 1.33 1.28 1.27 1.39 1.48 1.44
0.59 0.62 0.66 0.65 0.62 0.60 0.72 0.78 0.71 0.69 0.69 0.67 0.65 0.60 0.50 0.40 0.34 0.29 0.27 0.29 0.33 0.52 0.67 0.67 0.67 0.64 0.61 0.69 0.83 0.99 1.12 1.28 1.47 1.59 1.39 1.23 1.15 1.13 1.16 1.10 1.06 1.07 1.12
0.57 0.65 0.67 0.62 0.68 0.68 0.65 0.65 0.65 0.67 0.60 0.55 0.55 0.52 0.48 0.43 0.37 0.28 0.24 0.25 0.30 0.44 0.60 0.64 0.61 0.59 0.70 0.91 1.03 1.12 1.27 1.46 1.51 1.38 1.25 1.13 1.03 1.05 1.01 0.97 0.94 0.97 0.96
0.61 0.63 0.61 0.64 0.74 0.72 0.63 0.54 0.52 0.52 0.48 0.45 0.46 0.45 0.47 0.46 0.36 0.31 0.31 0.32 0.35 0.42 0.54 0.67 0.73 0.75 0.92 1.12 1.26 1.35 1.44 1.50 1.36 1.24 1.16 1.05 0.92 0.99 1.01 0.96 1.03 1.05 1.03
0.56 0.59 0.59 0.60 0.65 0.68 0.58 0.46 0.43 0.37 0.30 0.30 0.32 0.34 0.41 0.40 0.29 0.27 0.30 0.33 0.38 0.42 0.50 0.69 0.84 0.89 1.02 1.17 1.30 1.36 1.40 1.40 1.32 1.20 1.11 1.02 0.93 0.93 0.90 0.83 0.90 0.95 0.98
0.53 0.51 0.46 0.49 0.50 0.52 0.52 0.46 0.31 0.19 0.14 0.13 0.14 0.19 0.23 0.24 0.21 0.20 0.23 0.29 0.34 0.44 0.58 0.86 0.94 0.93 0.98 1.08 1.19 1.28 1.27 1.24 1.18 1.17 1.15 1.11 1.02 0.90 0.87 0.82 0.81 0.86 0.94
0.49 0.48 0.40 0.38 0.41 0.42 0.43 0.49 0.44 0.26 0.13 0.10 0.09 0.12 0.14 0.15 0.18 0.19 0.21 0.26 0.33 0.46 0.64 0.85 0.94 0.99 1.03 1.06 1.08 1.11 1.16 1.17 1.11 1.09 1.08 1.02 0.93 0.85 0.82 0.82 0.81 0.83 0.84
0.36 0.32 0.33 0.39 0.39 0.37 0.35 0.34 0.38 0.43 0.38 0.28 0.17 0.14 0.15 0.17 0.20 0.20 0.22 0.28 0.36 0.43 0.62 0.79 0.90 0.97 1.02 1.05 1.04 1.00 1.03 1.06 1.01 0.94 0.93 0.91 0.86 0.83 0.81 0.81 0.79 0.74 0.71
0.32 0.30 0.31 0.33 0.32 0.28 0.25 0.25 0.28 0.34 0.36 0.36 0.31 0.23 0.20 0.21 0.23 0.24 0.28 0.37 0.45 0.48 0.55 0.67 0.78 0.86 0.87 0.87 0.91 0.92 0.96 0.99 0.93 0.88 0.89 0.90 0.88 0.83 0.76 0.67 0.61 0.52 0.55
0.22 0.20 0.24 0.27 0.25 0.22 0.22 0.23 0.25 0.29 0.32 0.32 0.34 0.32 0.27 0.36 0.46 0.42 0.38 0.43 0.48 0.49 0.53 0.63 0.71 0.73 0.72 0.68 0.69 0.73 0.78 0.80 0.81 0.83 0.83 0.79 0.75 0.70 0.63 0.55 0.53 0.53 0.56
0.18 0.19 0.20 0.20 0.18 0.18 0.19 0.19 0.17 0.22 0.27 0.31 0.28 0.26 0.37 0.46 0.54 0.51 0.49 0.54 0.58 0.56 0.55 0.58 0.61 0.63 0.63 0.60 0.58 0.57 0.61 0.66 0.68 0.70 0.73 0.72 0.65 0.59 0.53 0.48 0.46 0.44 0.45
0.16 0.19 0.18 0.16 0.16 0.15 0.15 0.15 0.16 0.19 0.24 0.28 0.28 0.28 0.39 0.44 0.48 0.51 0.53 0.59 0.63 0.61 0.58 0.58 0.59 0.59 0.59 0.57 0.53 0.52 0.54 0.59 0.61 0.62 0.61 0.58 0.55 0.51 0.43 0.39 0.38 0.38 0.39
0.15 0.18 0.18 0.15 0.13 0.13 0.13 0.14 0.15 0.18 0.22 0.25 0.28 0.31 0.36 0.46 0.50 0.55 0.62 0.64 0.65 0.68 0.63 0.57 0.63 0.65 0.57 0.50 0.46 0.44 0.45 0.47 0.47 0.51 0.59 0.58 0.51 0.45 0.40 0.35 0.34 0.35 0.36
0.15 0.15 0.16 0.16 0.15 0.14 0.14 0.13 0.12 0.12 0.16 0.20 0.24 0.24 0.28 0.35 0.43 0.47 0.55 0.61 0.67 0.71 0.69 0.67 0.70 0.63 0.51 0.44 0.40 0.39 0.41 0.44 0.44 0.46 0.48 0.51 0.47 0.40 0.35 0.32 0.32 0.34 0.37
0.13 0.14 0.14 0.13 0.12 0.12 0.12 0.11 0.10 0.11 0.14 0.15 0.16 0.18 0.21 0.25 0.29 0.33 0.40 0.45 0.51 0.58 0.57 0.58 0.58 0.49 0.42 0.38 0.36 0.37 0.42 0.41 0.38 0.42 0.47 0.50 0.43 0.38 0.34 0.31 0.30 0.32 0.33
0.11 0.10 0.10 0.10 0.09 0.09 0.09 0.09 0.09 0.10 0.12 0.13 0.13 0.15 0.19 0.22 0.25 0.29 0.32 0.34 0.37 0.43 0.46 0.49 0.47 0.38 0.31 0.29 0.29 0.28 0.27 0.23 0.23 0.28 0.39 0.43 0.37 0.32 0.34 0.33 0.29 0.32 0.36

GEFSGL_prec_meanprecacc_240.txt.gz
Total_Precipitation_Accumulation
1.73 1.69 1.70 1.64 1.57 1.46 1.35 1.26 1.20 1.14 1.09 1.07 1.05 1.03 1.02 1.02 1.00 1.04 1.03 1.04 1.10 1.13 1.13 1.14 1.13 1.16 1.21 1.18 1.25 1.38 1.55 1.75 1.86 1.66 1.49 1.39 1.33 1.37 1.40 1.29 1.22 1.13 1.04
1.37 1.49 1.60 1.50 1.43 1.35 1.28 1.20 1.14 1.02 0.97 0.98 0.99 0.94 0.85 0.84 0.91 0.98 1.00 0.98 1.06 1.07 1.07 1.13 1.12 1.14 1.17 1.16 1.22 1.30 1.44 1.63 1.77 1.81 1.63 1.49 1.41 1.37 1.38 1.31 1.08 0.99 0.99
1.12 1.17 1.29 1.32 1.29 1.26 1.12 1.03 0.99 0.96 0.95 0.93 0.89 0.87 0.85 0.81 0.83 0.83 0.84 0.85 0.92 0.99 1.02 1.08 1.12 1.15 1.13 1.14 1.18 1.24 1.36 1.48 1.66 1.74 1.67 1.56 1.48 1.41 1.47 1.35 1.21 1.27 1.08
1.00 1.09 1.12 1.14 1.15 1.16 1.06 0.96 0.92 0.89 0.86 0.85 0.78 0.77 0.82 0.80 0.73 0.68 0.69 0.74 0.82 0.86 0.87 0.99 1.05 1.07 1.06 1.13 1.18 1.23 1.30 1.46 1.58 1.65 1.58 1.49 1.45 1.44 1.50 1.52 1.45 1.39 1.26
0.93 1.05 1.13 1.05 1.00 1.06 1.12 1.00 0.90 0.85 0.80 0.80 0.74 0.69 0.74 0.72 0.66 0.66 0.67 0.67 0.73 0.74 0.77 0.85 0.91 0.92 0.91 0.97 0.99 1.10 1.24 1.39 1.48 1.56 1.54 1.49 1.42 1.50 1.53 1.48 1.45 1.42 1.29
0.86 1.01 1.07 1.05 1.03 1.05 1.11 1.05 0.97 0.90 0.87 0.83 0.77 0.72 0.71 0.66 0.66 0.61 0.59 0.62 0.69 0.76 0.82 0.84 0.80 0.80 0.77 0.73 0.78 0.88 1.05 1.26 1.45 1.54 1.51 1.49 1.44 1.47 1.57 1.55 1.52 1.53 1.49
0.89 0.92 1.00 1.05 1.09 1.11 1.09 1.05 1.01 0.99 0.98 0.88 0.78 0.75 0.71 0.64 0.57 0.48 0.48 0.54 0.70 0.82 0.89 0.85 0.74 0.70 0.81 0.81 0.80 0.82 0.94 1.07 1.30 1.53 1.58 1.47 1.44 1.49 1.64 1.70 1.62 1.59 1.55
0.93 0.90 0.88 0.91 0.94 0.93 0.99 1.03 1.01 0.98 0.92 0.87 0.79 0.74 0.68 0.52 0.46 0.45 0.48 0.52 0.64 0.69 0.71 0.77 0.85 0.87 0.81 0.83 0.82 0.92 1.01 1.11 1.18 1.31 1.51 1.44 1.38 1.47 1.59 1.63 1.57 1.51 1.42
0.87 0.83 0.76 0.72 0.75 0.76 0.84 0.95 1.02 0.98 0.88 0.80 0.74 0.71 0.66 0.54 0.50 0.49 0.52 0.56 0.61 0.57 0.53 0.58 0.64 0.69 0.70 0.77 0.87 1.04 1.09 1.20 1.21 1.37 1.40 1.34 1.34 1.37 1.32 1.37 1.59 1.71 1.59
0.77 0.70 0.65 0.64 0.68 0.69 0.75 0.86 0.92 0.94 0.83 0.69 0.62 0.63 0.60 0.58 0.53 0.47 0.46 0.49 0.57 0.54 0.56 0.63 0.61 0.55 0.60 0.72 0.91 1.12 1.27 1.31 1.39 1.56 1.54 1.51 1.42 1.38 1.27 1.28 1.57 1.77 1.72
0.62 0.60 0.61 0.66 0.69 0.67 0.75 0.83 0.81 0.75 0.75 0.68 0.62 0.61 0.55 0.48 0.42 0.37 0.38 0.42 0.48 0.54 0.61 0.69 0.70 0.61 0.56 0.63 0.83 1.03 1.21 1.25 1.46 1.71 1.60 1.44 1.39 1.35 1.31 1.29 1.41 1.50 1.47
0.60 0.63 0.67 0.66 0.62 0.61 0.73 0.80 0.73 0.71 0.70 0.68 0.66 0.61 0.50 0.40 0.35 0.30 0.28 0.30 0.35 0.53 0.68 0.68 0.68 0.65 0.62 0.69 0.84 1.01 1.13 1.32 1.51 1.61 1.41 1.25 1.17 1.15 1.19 1.13 1.10 1.10 1.14
0.58 0.66 0.68 0.63 0.70 0.70 0.67 0.67 0.67 0.69 0.61 0.56 0.56 0.53 0.49 0.44 0.37 0.28 0.25 0.26 0.32 0.45 0.61 0.65 0.62 0.60 0.70 0.91 1.03 1.13 1.28 1.50 1.55 1.42 1.28 1.16 1.05 1.07 1.04 1.00 0.98 1.01 0.99
0.62 0.64 0.62 0.65 0.76 0.75 0.65 0.56 0.54 0.53 0.49 0.46 0.47 0.46 0.47 0.47 0.37 0.31 0.32 0.32 0.36 0.44 0.56 0.68 0.73 0.75 0.92 1.13 1.27 1.37 1.46 1.54 1.40 1.27 1.19 1.07 0.94 1.01 1.04 1.00 1.08 1.09 1.08
0.57 0.60 0.60 0.62 0.66 0.71 0.61 0.48 0.44 0.38 0.31 0.31 0.33 0.34 0.42 0.41 0.30 0.28 0.31 0.34 0.39 0.44 0.53 0.71 0.86 0.90 1.03 1.18 1.31 1.38 1.43 1.43 1.36 1.23 1.14 1.04 0.96 0.94 0.92 0.86 0.95 1.00 1.05
0.54 0.52 0.47 0.50 0.53 0.55 0.55 0.48 0.32 0.19 0.15 0.14 0.14 0.19 0.23 0.24 0.22 0.21 0.24 0.29 0.35 0.45 0.61 0.88 0.96 0.94 0.99 1.09 1.20 1.30 1.29 1.26 1.21 1.21 1.19 1.14 1.04 0.92 0.89 0.84 0.85 0.91 1.00
0.49 0.49 0.41 0.40 0.44 0.46 0.45 0.50 0.45 0.27 0.13 0.10 0.09 0.12 0.14 0.15 0.18 0.19 0.21 0.27 0.33 0.46 0.66 0.86 0.95 1.00 1.03 1.07 1.09 1.12 1.17 1.19 1.13 1.12 1.11 1.05 0.95 0.88 0.85 0.85 0.84 0.88 0.89
0.36 0.34 0.36 0.41 0.41 0.39 0.35 0.35 0.38 0.44 0.39 0.28 0.17 0.14 0.15 0.17 0.20 0.20 0.22 0.28 0.36 0.43 0.63 0.80 0.91 0.97 1.02 1.06 1.05 1.02 1.06 1.09 1.04 0.97 0.95 0.93 0.88 0.85 0.85 0.84 0.83 0.79 0.77
0.34 0.32 0.33 0.35 0.34 0.29 0.26 0.25 0.29 0.35 0.37 0.36 0.32 0.24 0.20 0.21 0.23 0.24 0.29 0.37 0.45 0.49 0.56 0.68 0.79 0.87 0.88 0.89 0.93 0.95 0.98 1.02 0.96 0.90 0.91 0.91 0.90 0.85 0.79 0.71 0.65 0.57 0.62
0.24 0.23 0.26 0.29 0.26 0.23 0.23 0.24 0.25 0.30 0.32 0.33 0.35 0.32 0.28 0.36 0.46 0.42 0.39 0.43 0.48 0.49 0.53 0.64 0.72 0.74 0.74 0.71 0.71 0.75 0.81 0.83 0.83 0.85 0.85 0.81 0.77 0.72 0.65 0.59 0.57 0.58 0.61
0.19 0.20 0.21 0.20 0.19 0.19 0.20 0.19 0.18 0.23 0.28 0.32 0.28 0.27 0.38 0.47 0.54 0.52 0.50 0.54 0.58 0.56 0.55 0.59 0.64 0.66 0.66 0.63 0.61 0.60 0.63 0.68 0.71 0.72 0.75 0.74 0.67 0.61 0.56 0.51 0.49 0.48 0.49
0.17 0.19 0.19 0.17 0.16 0.16 0.16 0.16 0.16 0.20 0.24 0.29 0.29 0.29 0.39 0.44 0.49 0.51 0.54 0.59 0.63 0.62 0.59 0.60 0.62 0.62 0.62 0.60 0.56 0.54 0.56 0.61 0.64 0.64 0.64 0.61 0.57 0.53 0.45 0.41 0.40 0.40 0.42
0.16 0.18 0.18 0.16 0.14 0.13 0.14 0.16 0.16 0.19 0.22 0.26 0.29 0.31 0.36 0.46 0.50 0.55 0.62 0.64 0.65 0.68 0.64 0.59 0.65 0.68 0.60 0.53 0.48 0.45 0.46 0.48 0.49 0.53 0.61 0.60 0.53 0.47 0.41 0.36 0.36 0.38 0.38
0.16 0.17 0.17 0.18 0.17 0.16 0.16 0.15 0.13 0.13 0.17 0.20 0.24 0.25 0.28 0.36 0.43 0.48 0.55 0.61 0.67 0.72 0.71 0.68 0.72 0.66 0.53 0.45 0.40 0.39 0.42 0.45 0.45 0.47 0.50 0.54 0.50 0.42 0.36 0.34 0.33 0.36 0.39
0.13 0.15 0.15 0.15 0.15 0.14 0.14 0.13 0.12 0.12 0.15 0.15 0.17 0.19 0.22 0.26 0.30 0.34 0.41 0.46 0.52 0.59 0.58 0.60 0.60 0.51 0.43 0.38 0.36 0.37 0.42 0.41 0.39 0.43 0.49 0.52 0.45 0.40 0.36 0.32 0.32 0.34 0.36
0.12 0.11 0.11 0.10 0.10 0.10 0.11 0.11 0.11 0.12 0.14 0.14 0.14 0.16 0.20 0.22 0.26 0.30 0.33 0.35 0.38 0.44 0.47 0.50 0.49 0.39 0.32 0.29 0.29 0.29 0.27 0.23 0.23 0.28 0.40 0.44 0.38 0.34 0.36 0.35 0.31 0.34 0.38

GEFSGL_prec_meanprecacc_246.txt.gz
Total_Precipitation_Accumulation
1.78 1.73 1.75 1.69 1.62 1.50 1.40 1.31 1.24 1.18 1.14 1.10 1.08 1.05 1.04 1.03 1.01 1.06 1.05 1.06 1.13 1.16 1.16 1.17 1.17 1.20 1.26 1.23 1.29 1.42 1.60 1.81 1.93 1.73 1.57 1.48 1.43 1.46 1.49 1.38 1.29 1.20 1.10
1.41 1.53 1.64 1.54 1.47 1.39 1.32 1.24 1.18 1.07 1.03 1.03 1.03 0.97 0.87 0.85 0.92 1.00 1.01 1.00 1.09 1.09 1.09 1.15 1.15 1.18 1.22 1.22 1.28 1.36 1.50 1.71 1.85 1.89 1.71 1.57 1.49 1.46 1.48 1.41 1.17 1.05 1.04
1.14 1.20 1.33 1.37 1.34 1.31 1.16 1.08 1.04 1.01 1.00 0.98 0.92 0.90 0.87 0.82 0.84 0.84 0.86 0.87 0.93 1.01 1.04 1.10 1.14 1.18 1.17 1.20 1.26 1.32 1.45 1.58 1.77 1.86 1.76 1.63 1.55 1.48 1.56 1.45 1.31 1.36 1.13
1.02 1.12 1.16 1.20 1.22 1.22 1.11 1.01 0.97 0.94 0.91 0.88 0.80 0.78 0.83 0.81 0.74 0.69 0.71 0.76 0.84 0.87 0.89 1.00 1.06 1.09 1.09 1.17 1.23 1.31 1.40 1.56 1.69 1.76 1.68 1.57 1.52 1.51 1.58 1.61 1.53 1.46 1.33
0.96 1.08 1.16 1.10 1.06 1.12 1.16 1.05 0.93 0.88 0.82 0.81 0.75 0.70 0.74 0.73 0.66 0.67 0.68 0.69 0.75 0.76 0.78 0.86 0.92 0.93 0.92 0.99 1.01 1.14 1.31 1.48 1.57 1.65 1.62 1.58 1.52 1.61 1.64 1.56 1.51 1.48 1.36
0.88 1.03 1.09 1.09 1.07 1.09 1.14 1.08 0.99 0.92 0.89 0.84 0.79 0.74 0.73 0.66 0.66 0.62 0.60 0.63 0.71 0.78 0.85 0.86 0.81 0.81 0.77 0.74 0.80 0.90 1.09 1.32 1.52 1.61 1.58 1.58 1.55 1.60 1.70 1.66 1.61 1.62 1.57
0.92 0.95 1.03 1.08 1.11 1.13 1.11 1.07 1.03 1.02 1.01 0.91 0.80 0.77 0.74 0.66 0.57 0.48 0.48 0.56 0.73 0.85 0.91 0.88 0.75 0.71 0.82 0.83 0.84 0.85 0.96 1.10 1.34 1.58 1.64 1.54 1.54 1.60 1.76 1.82 1.72 1.68 1.63
0.96 0.92 0.93 0.94 0.95 0.95 1.01 1.06 1.04 1.01 0.96 0.89 0.82 0.76 0.71 0.54 0.48 0.45 0.48 0.54 0.67 0.72 0.74 0.80 0.87 0.89 0.83 0.85 0.85 0.96 1.05 1.14 1.22 1.35 1.56 1.50 1.45 1.55 1.68 1.71 1.65 1.57 1.48
0.89 0.86 0.81 0.76 0.78 0.80 0.88 0.99 1.06 1.02 0.92 0.84 0.76 0.73 0.69 0.58 0.52 0.50 0.53 0.59 0.65 0.60 0.56 0.60 0.66 0.72 0.72 0.79 0.90 1.08 1.14 1.25 1.24 1.40 1.43 1.37 1.37 1.41 1.37 1.43 1.66 1.77 1.66
0.79 0.72 0.67 0.69 0.72 0.74 0.80 0.91 0.96 0.99 0.88 0.73 0.65 0.66 0.64 0.62 0.55 0.48 0.47 0.51 0.59 0.57 0.59 0.65 0.63 0.57 0.61 0.73 0.93 1.16 1.31 1.36 1.44 1.59 1.56 1.53 1.44 1.40 1.30 1.33 1.63 1.82 1.76
0.65 0.62 0.63 0.68 0.72 0.71 0.80 0.89 0.87 0.81 0.79 0.71 0.66 0.64 0.58 0.50 0.44 0.37 0.38 0.43 0.51 0.58 0.64 0.71 0.72 0.61 0.57 0.64 0.84 1.06 1.23 1.28 1.50 1.75 1.64 1.47 1.42 1.38 1.34 1.33 1.46 1.55 1.51
0.61 0.64 0.68 0.68 0.64 0.64 0.78 0.86 0.78 0.76 0.74 0.72 0.70 0.64 0.54 0.43 0.36 0.31 0.28 0.30 0.36 0.55 0.70 0.70 0.70 0.66 0.62 0.69 0.84 1.01 1.14 1.33 1.54 1.65 1.45 1.28 1.19 1.17 1.21 1.16 1.14 1.14 1.17
0.59 0.68 0.69 0.65 0.72 0.74 0.72 0.72 0.72 0.73 0.64 0.58 0.59 0.55 0.51 0.45 0.38 0.29 0.25 0.26 0.32 0.47 0.63 0.68 0.64 0.61 0.71 0.92 1.04 1.14 1.29 1.51 1.58 1.45 1.32 1.19 1.07 1.09 1.05 1.03 1.02 1.05 1.03
0.64 0.67 0.64 0.67 0.78 0.78 0.69 0.59 0.56 0.56 0.52 0.49 0.50 0.48 0.49 0.48 0.39 0.32 0.33 0.33 0.37 0.45 0.58 0.71 0.75 0.77 0.93 1.14 1.28 1.38 1.48 1.56 1.43 1.30 1.22 1.10 0.96 1.02 1.06 1.03 1.12 1.14 1.12
0.58 0.62 0.63 0.64 0.69 0.75 0.66 0.51 0.46 0.40 0.33 0.33 0.37 0.37 0.43 0.42 0.31 0.29 0.31 0.35 0.40 0.46 0.55 0.73 0.88 0.92 1.04 1.20 1.33 1.40 1.45 1.46 1.38 1.25 1.17 1.08 0.99 0.97 0.94 0.89 0.98 1.04 1.08
0.56 0.54 0.50 0.53 0.56 0.58 0.58 0.50 0.33 0.20 0.15 0.14 0.15 0.20 0.24 0.25 0.22 0.21 0.24 0.30 0.36 0.46 0.62 0.89 0.97 0.96 1.01 1.11 1.23 1.32 1.31 1.28 1.24 1.24 1.22 1.17 1.07 0.96 0.92 0.88 0.89 0.96 1.04
0.52 0.52 0.43 0.41 0.46 0.48 0.47 0.53 0.47 0.28 0.14 0.10 0.09 0.12 0.15 0.15 0.18 0.19 0.22 0.27 0.34 0.47 0.67 0.87 0.97 1.01 1.05 1.09 1.11 1.14 1.19 1.20 1.15 1.14 1.15 1.09 0.99 0.91 0.89 0.90 0.89 0.93 0.95
0.39 0.36 0.37 0.43 0.42 0.40 0.37 0.37 0.40 0.46 0.41 0.30 0.18 0.15 0.16 0.18 0.20 0.20 0.23 0.29 0.37 0.44 0.64 0.81 0.92 0.98 1.04 1.07 1.06 1.03 1.07 1.11 1.06 0.99 0.98 0.97 0.92 0.89 0.89 0.89 0.89 0.85 0.84
0.36 0.34 0.35 0.37 0.35 0.31 0.28 0.27 0.30 0.37 0.39 0.38 0.32 0.25 0.21 0.22 0.24 0.24 0.29 0.38 0.46 0.49 0.56 0.68 0.79 0.87 0.89 0.90 0.94 0.96 1.00 1.04 0.98 0.93 0.93 0.94 0.94 0.90 0.84 0.76 0.71 0.64 0.69
0.27 0.24 0.27 0.30 0.27 0.24 0.25 0.27 0.27 0.31 0.34 0.35 0.36 0.33 0.29 0.37 0.47 0.43 0.39 0.44 0.49 0.50 0.54 0.64 0.72 0.75 0.75 0.71 0.72 0.76 0.82 0.84 0.85 0.87 0.87 0.84 0.80 0.77 0.71 0.64 0.62 0.63 0.67
0.22 0.21 0.21 0.21 0.19 0.20 0.22 0.22 0.20 0.25 0.29 0.33 0.29 0.27 0.39 0.49 0.56 0.53 0.50 0.55 0.58 0.57 0.56 0.60 0.65 0.67 0.66 0.64 0.62 0.61 0.65 0.70 0.73 0.75 0.78 0.76 0.71 0.66 0.61 0.55 0.53 0.51 0.53
0.18 0.20 0.20 0.17 0.17 0.16 0.17 0.18 0.18 0.22 0.26 0.31 0.30 0.30 0.41 0.46 0.50 0.53 0.55 0.61 0.65 0.63 0.60 0.61 0.62 0.63 0.63 0.61 0.57 0.56 0.58 0.63 0.65 0.66 0.66 0.63 0.60 0.57 0.48 0.45 0.44 0.43 0.44
0.17 0.19 0.19 0.16 0.14 0.14 0.15 0.17 0.17 0.20 0.23 0.26 0.30 0.33 0.38 0.48 0.52 0.57 0.65 0.68 0.68 0.70 0.65 0.60 0.66 0.68 0.61 0.54 0.49 0.47 0.48 0.51 0.52 0.56 0.63 0.62 0.55 0.49 0.43 0.39 0.39 0.41 0.41
0.17 0.17 0.17 0.18 0.18 0.16 0.17 0.16 0.14 0.14 0.18 0.22 0.26 0.27 0.30 0.37 0.44 0.49 0.56 0.62 0.69 0.73 0.71 0.69 0.72 0.66 0.53 0.47 0.42 0.40 0.43 0.47 0.48 0.50 0.53 0.56 0.51 0.43 0.37 0.35 0.35 0.39 0.42
0.14 0.15 0.15 0.16 0.15 0.15 0.16 0.14 0.13 0.14 0.17 0.18 0.19 0.21 0.24 0.28 0.32 0.36 0.42 0.47 0.53 0.60 0.59 0.60 0.60 0.52 0.44 0.39 0.37 0.39 0.45 0.43 0.41 0.46 0.51 0.53 0.46 0.41 0.38 0.34 0.34 0.36 0.38
0.13 0.12 0.12 0.11 0.11 0.11 0.12 0.13 0.12 0.14 0.16 0.17 0.16 0.19 0.22 0.25 0.28 0.33 0.35 0.37 0.40 0.45 0.49 0.51 0.50 0.40 0.32 0.30 0.31 0.31 0.29 0.25 0.24 0.30 0.42 0.46 0.39 0.35 0.37 0.37 0.33 0.36 0.40